This is the latest recevied weather packets stored in our database for station/object KA1JKB. If no packets are shown the sender has not sent any weather packets the latest 10 day(s).
| Time | Temp. | Humidity | Pressure | Rain* | Wind** | Luminosity | Snow |
|---|---|---|---|---|---|---|---|
| 1777571709 | 10° C | 67% | 1012.4 hPa | 0 mm | - | 750 W/m² | - |
| 1777571407 | 9.44° C | 67% | 1012.1 hPa | 0 mm | - | 188 W/m² | - |
| 1777571103 | 9.44° C | 67% | 1012.2 hPa | 0 mm | - | 188 W/m² | - |
| 1777570799 | 10° C | 67% | 1012.2 hPa | 0 mm | - | 186 W/m² | - |
| 1777570495 | 10° C | 68% | 1012.2 hPa | 0 mm | - | 294 W/m² | - |
| 1777570191 | 10.56° C | 61% | 1012.1 hPa | 0 mm | - | 290 W/m² | - |
| 1777569887 | 11.11° C | 67% | 1012.5 hPa | 0 mm | - | 671 W/m² | - |
| 1777569583 | 10.56° C | 62% | 1012.4 hPa | 0 mm | - | 768 W/m² | - |
| 1777569280 | 10° C | 63% | 1012.4 hPa | 0 mm | - | 773 W/m² | - |
| 1777568976 | 10.56° C | 65% | 1012.5 hPa | 0 mm | - | 373 W/m² | - |
| 1777568673 | 10° C | 66% | 1012.4 hPa | 0 mm | - | 983 W/m² | - |
| 1777568370 | 10° C | 66% | 1012.4 hPa | 0 mm | - | 298 W/m² | - |
| 1777568067 | 10.56° C | 67% | 1012.3 hPa | 0 mm | - | 290 W/m² | - |
| 1777567763 | 10.56° C | 64% | 1012.3 hPa | 0 mm | - | 340 W/m² | - |
| 1777567460 | 10.56° C | 65% | 1012.3 hPa | 0 mm | - | 287 W/m² | - |
| 1777567158 | 11.11° C | 65% | 1012.4 hPa | 0 mm | - | 703 W/m² | - |
| 1777566856 | 10° C | 65% | 1012.3 hPa | 0 mm | - | 904 W/m² | - |
| 1777566553 | 10° C | 67% | 1012.6 hPa | 0 mm | - | 720 W/m² | - |
| 1777566251 | 10° C | 62% | 1012.5 hPa | 0 mm | - | 254 W/m² | - |
| 1777565948 | 10° C | 70% | 1012.4 hPa | 0 mm | - | 188 W/m² | - |
| 1777565643 | 10° C | 68% | 1012.5 hPa | 0 mm | - | 859 W/m² | - |
| 1777565340 | 10.56° C | 69% | 1012.6 hPa | 0 mm | - | 881 W/m² | - |
| 1777565035 | 10.56° C | 71% | 1012.8 hPa | 0 mm | - | 897 W/m² | - |
| 1777564731 | 10° C | 70% | 1012.6 hPa | 0 mm | - | 886 W/m² | - |
| 1777564427 | 10° C | 74% | 1012.6 hPa | 0 mm | - | 278 W/m² | - |
* Rain latest hour (hover to see other rain measurements)
** Current wind speed in m/s (hover to see current wind gust speed)